Lid_Strength_Index
8 11 13 11 10 10 10 11 12 10 9 10 10 10 9 8 8 8 8 8 7 7 5 5 4 2 2 2 2 2 2 2 2 3 3 2 3 2 1 0 0 1 2 1
11 12 9 8 8 9 10 11 12 10 9 10 11 11 10 10 9 9 8 8 7 7 6 4 3 4 3 3 3 2 2 2 2 2 2 2 2 1 1 1 0 0 1 2
12 10 7 8 9 10 10 11 12 11 9 10 11 13 11 9 9 8 8 7 7 7 7 5 5 5 4 3 3 2 2 2 2 1 2 2 2 2 2 2 1 1 0 -0
11 8 9 9 9 9 13 9 9 10 12 15 11 17 13 11 9 9 8 8 8 7 7 5 5 5 5 4 4 5 2 2 2 2 2 3 3 4 3 2 1 1 0 0
10 10 10 10 10 9 11 9 10 10 12 14 13 16 14 11 11 9 8 8 8 8 6 6 6 6 5 6 6 3 3 3 3 2 2 3 3 3 2 2 2 1 1 1
9 7 9 9 8 9 8 10 12 13 14 17 14 14 15 12 11 10 8 8 8 8 7 7 7 6 7 6 6 5 4 4 3 2 4 4 4 4 3 3 3 2 2 1
10 10 8 7 10 10 10 14 18 18 18 18 12 14 14 10 9 8 9 9 9 8 8 8 8 8 8 8 8 6 7 6 5 5 3 3 4 3 3 3 3 3 3 2
15 14 9 7 9 11 12 13 17 20 19 17 12 16 13 8 7 8 8 8 8 9 9 9 8 8 8 8 8 6 6 6 6 6 5 4 4 3 3 2 2 2 2 2
15 14 8 7 7 9 11 13 12 15 16 18 15 13 10 8 8 8 8 9 9 9 8 8 9 9 9 8 7 6 7 6 7 6 5 4 2 2 4 3 2 3 2 1
11 15 9 8 7 7 10 8 15 15 21 22 17 16 14 11 10 9 9 9 9 10 9 9 8 9 8 8 8 8 6 7 7 5 3 3 3 3 3 2 2 2 1 1
11 12 13 10 12 12 11 13 13 13 16 20 21 17 10 10 9 9 9 8 8 9 9 9 9 9 9 9 8 7 7 6 5 4 4 4 3 2 2 2 2 2 2 1
10 12 16 13 9 8 11 13 13 18 19 17 18 17 8 8 9 9 8 8 8 9 9 9 8 8 8 8 7 7 7 7 6 6 5 4 3 3 3 2 2 2 2 2
10 14 17 15 12 10 13 11 11 12 14 17 19 17 9 8 9 9 10 9 9 9 9 9 9 8 8 8 7 7 7 7 6 6 6 6 6 5 4 3 3 3 2 2
8 12 15 17 15 13 14 11 11 13 17 17 16 15 11 10 10 10 10 9 10 9 8 8 8 9 8 7 7 7 7 7 6 6 7 8 8 7 5 4 3 2 2 3
10 14 13 12 11 11 12 12 11 13 13 17 14 13 11 11 11 11 10 9 9 9 8 9 9 9 9 8 8 7 7 6 7 7 8 8 8 7 7 5 4 3 1 2
10 15 13 14 12 11 13 11 11 11 11 11 12 12 9 8 10 10 10 9 9 9 9 9 8 8 9 9 8 7 7 7 8 8 8 8 8 8 8 7 6 4 2 2
12 13 14 17 13 13 15 12 11 11 10 11 14 11 10 10 10 10 10 10 9 9 9 9 9 10 10 9 8 9 9 9 9 9 9 8 8 8 8 8 6 5 3 3
12 13 13 16 15 21 12 9 9 11 10 9 10 10 9 10 10 9 10 11 10 9 9 10 11 10 9 9 10 11 11 11 11 11 10 9 9 8 8 8 7 6 4 3
9 12 15 18 17 14 12 11 11 11 13 9 10 10 10 9 10 11 9 9 10 11 11 10 9 10 11 12 12 12 12 12 12 12 11 9 9 10 9 8 7 6 5 4
9 10 14 15 19 20 14 9 7 8 16 9 9 10 11 11 14 13 10 9 10 9 9 10 11 12 12 12 12 13 13 13 13 12 12 11 9 9 10 9 7 7 7 5
14 13 16 16 17 14 10 8 7 16 15 9 9 10 11 13 12 11 10 9 9 9 11 12 12 13 13 13 13 14 14 14 13 12 12 11 10 9 8 8 7 5 5 3
14 15 16 15 17 18 8 8 13 10 8 9 10 11 11 10 10 10 10 10 11 13 13 13 13 14 14 13 14 14 14 12 12 11 11 10 10 9 8 8 6 6 4 5
15 12 14 13 14 8 7 8 6 7 9 10 11 10 10 11 11 10 11 12 13 14 14 14 14 14 14 14 14 15 13 12 11 10 10 10 9 9 8 8 7 5 5 5
10 8 12 12 10 9 7 6 6 8 9 8 10 10 9 11 11 12 13 14 15 15 15 15 15 15 15 14 13 13 12 10 9 10 9 9 8 8 8 7 6 5 5 5
10 9 10 11 9 8 7 7 7 8 8 10 9 9 10 12 14 14 15 16 16 16 15 16 16 16 16 14 13 12 11 9 9 9 8 8 7 8 8 7 6 5 5 4
9 10 12 12 8 9 10 8 8 10 10 9 9 10 11 12 15 15 16 16 16 16 16 16 16 16 15 14 13 13 10 10 10 9 9 8 8 8 7 6 6 7 6 6